Anaktuvuk Pass, AK

11:47 AM AKST on January 18, 2017 (GMT -0900)
Anaktuvuk Pass

Weather History for PAKP - November, 2012

Change the Weather History Date:

Friday, November 2, 2012

  Actual Average Record
Temperature  
Mean Temperature 8 °F -  
Max Temperature 14 °F 6 °F 30 °F (2003)
Min Temperature 3 °F 0 °F -23 °F (1999)
Degree Days  
Heating Degree Days 56    
Moisture  
Dew Point -2 °F    
Average Humidity 66    
Maximum Humidity 79    
Minimum Humidity 52    
Precipitation  
Precipitation 0.00 in - - ()
Sea Level Pressure  
Sea Level Pressure 29.94 in    
Wind  
Wind Speed 9 mph (NNE)    
Max Wind Speed 18 mph    
Max Gust Speed 25 mph    
Visibility 4 miles    
Events      
Averages and records for this station are not official NWS values.
T = Trace of Precipitation, MM = Missing Value Source: NWS Daily Summary

Daily Weather History Graph

Daily Weather History Graph

Search for Another Location

Airport or City:

Trip Planner

Search our weather history database for the weather conditions in past years. The results will help you decide how hot, cold, wet, or windy it might be!

Date:

Astronomy

Nov. 02, 2012 Rise Set
Actual Time 10:26 AM AKDT 5:13 PM AKDT
Civil Twilight 9:19 AM AKDT 6:20 PM AKDT
Nautical Twilight 8:11 AM AKDT 7:28 PM AKDT
Astronomical Twilight 7:06 AM AKDT 8:32 PM AKDT
Moon 6:28 PM AKDT (11/2) 3:37 PM AKDT (11/2)
Length of Visible Light 9h 00m
Length of Day
6h 46m
Waning Gibbous, 86% of the Moon is Illuminated
Nov 2
Waning Gibbous
Nov 6
Last Quarter
Nov 13
New
Nov 20
First Quarter
Nov 28
Full

Hourly Weather History & Observations

Time (AKDT) Temp. Windchill Dew Point Humidity Pressure Visibility Wind Dir Wind Speed Gust Speed Precip Events Conditions
12:16 AM 3.2 °F -10.3 °F -5.8 °F 66% 29.98 in 10.0 mi South 8.1 mph - N/A   Overcast
12:36 AM 3.2 °F -10.3 °F -5.8 °F 66% 29.98 in 10.0 mi South 8.1 mph - N/A   Overcast
12:56 AM 3.2 °F -7.8 °F -7.6 °F 61% 29.98 in 10.0 mi SSW 5.8 mph - N/A   Overcast
1:16 AM 3.2 °F -11.3 °F -5.8 °F 66% 29.97 in 10.0 mi South 9.2 mph - N/A   Overcast
1:36 AM 3.2 °F -10.3 °F -5.8 °F 66% 29.97 in 10.0 mi South 8.1 mph - N/A   Overcast
1:56 AM 3.2 °F -11.3 °F -4.0 °F 72% 29.96 in 10.0 mi South 9.2 mph - N/A   Overcast
2:16 AM 3.2 °F -13.1 °F -2.2 °F 78% 29.95 in 7.0 mi South 11.5 mph - N/A   Overcast
2:36 AM 3.2 °F -11.3 °F -4.0 °F 72% 29.95 in 3.0 mi South 9.2 mph - N/A   Overcast
2:56 AM 3.2 °F -11.3 °F -4.0 °F 72% 29.95 in 2.5 mi South 9.2 mph - N/A   Overcast
3:16 AM 3.2 °F -6.2 °F -2.2 °F 78% 29.95 in 3.0 mi SW 4.6 mph - N/A   Overcast
3:36 AM 3.2 °F -9.1 °F -2.2 °F 78% 29.94 in 3.0 mi South 6.9 mph - N/A   Overcast
3:56 AM 3.2 °F -4.2 °F -2.2 °F 78% 29.94 in 3.0 mi SW 3.5 mph - N/A   Overcast
4:16 AM 3.2 °F - -2.2 °F 78% 29.94 in 3.0 mi Calm Calm - N/A   Overcast
4:36 AM 3.2 °F -4.2 °F -2.2 °F 78% 29.93 in 4.0 mi SSE 3.5 mph - N/A   Overcast
4:56 AM 5.0 °F -4.1 °F -2.2 °F 72% 29.92 in 5.0 mi ESE 4.6 mph - N/A   Overcast
5:16 AM 6.8 °F -2.0 °F -0.4 °F 72% 29.92 in 2.5 mi East 4.6 mph - N/A   Overcast
5:36 AM 6.8 °F - -0.4 °F 72% 29.91 in 3.0 mi Calm Calm - N/A   Overcast
5:56 AM 10.4 °F - 3.2 °F 73% 29.91 in 4.0 mi Calm Calm - N/A   Overcast
6:16 AM 10.4 °F -2.4 °F 5.0 °F 79% 29.91 in 3.0 mi ENE 9.2 mph - N/A   Overcast
6:36 AM 12.2 °F 1.7 °F 6.8 °F 79% 29.91 in 4.0 mi ENE 6.9 mph - N/A   Overcast
6:56 AM 14.0 °F - 6.8 °F 73% 29.91 in 5.0 mi Calm Calm - N/A   Overcast
7:16 AM 14.0 °F - 5.0 °F 67% 29.91 in 5.0 mi Calm Calm - N/A   Overcast
7:36 AM 14.0 °F 2.0 °F 3.2 °F 62% 29.91 in 5.0 mi NNE 9.2 mph - N/A   Overcast
7:56 AM 14.0 °F 2.0 °F 6.8 °F 73% 29.91 in 3.0 mi NW 9.2 mph - N/A   Overcast
8:16 AM 12.2 °F 0.7 °F 3.2 °F 67% 29.91 in 5.0 mi NNW 8.1 mph 16.1 mph N/A   Overcast
8:36 AM 12.2 °F 1.7 °F 3.2 °F 67% 29.92 in 7.0 mi North 6.9 mph - N/A   Overcast
8:56 AM 12.2 °F 2.9 °F 3.2 °F 67% 29.92 in 5.0 mi NW 5.8 mph - N/A   Overcast
9:16 AM 12.2 °F -1.8 °F 1.4 °F 62% 29.92 in 3.0 mi NNW 11.5 mph 18.4 mph N/A   Overcast
9:36 AM 12.2 °F -1.8 °F 1.4 °F 62% 29.92 in 5.0 mi NNW 11.5 mph 18.4 mph N/A   Overcast
9:56 AM 12.2 °F -2.5 °F 1.4 °F 62% 29.92 in 3.0 mi NNW 12.7 mph 19.6 mph N/A   Overcast
10:16 AM 10.4 °F -3.3 °F 1.4 °F 67% 29.93 in 1.5 mi North 10.4 mph 17.3 mph N/A   Overcast
10:36 AM 12.2 °F -2.5 °F 1.4 °F 62% 29.94 in 2.0 mi North 12.7 mph 16.1 mph N/A   Overcast
10:56 AM 10.4 °F -4.8 °F 1.4 °F 67% 29.94 in 3.0 mi North 12.7 mph 16.1 mph N/A   Overcast
11:16 AM 10.4 °F -7.2 °F 1.4 °F 67% 29.94 in 1.8 mi NNE 17.3 mph 20.7 mph N/A   Overcast
11:36 AM 8.6 °F -10.0 °F 1.4 °F 73% 29.95 in 0.5 mi NNE 18.4 mph 23.0 mph N/A   Overcast
11:56 AM 8.6 °F -10.0 °F 1.4 °F 73% 29.95 in 0.5 mi NNE 18.4 mph 25.3 mph N/A   Overcast
12:16 PM 8.6 °F -9.5 °F 1.4 °F 73% 29.96 in 0.5 mi NNE 17.3 mph 23.0 mph N/A   Overcast
12:36 PM 8.6 °F -9.5 °F 1.4 °F 73% 29.96 in 0.5 mi NNE 17.3 mph 23.0 mph N/A   Overcast
12:56 PM 8.6 °F -6.3 °F 1.4 °F 73% 29.96 in 1.0 mi NNE 11.5 mph 17.3 mph N/A   Overcast
1:16 PM 8.6 °F -7.7 °F -0.4 °F 67% 29.96 in 1.2 mi NNE 13.8 mph 17.3 mph N/A   Overcast
1:36 PM 8.6 °F -4.7 °F -0.4 °F 67% 29.96 in 2.5 mi North 9.2 mph 20.7 mph N/A   Overcast
1:56 PM 8.6 °F -3.7 °F -2.2 °F 62% 29.96 in 5.0 mi North 8.1 mph - N/A   Overcast
2:16 PM 8.6 °F -6.3 °F -2.2 °F 62% 29.96 in 4.0 mi North 11.5 mph 16.1 mph N/A   Overcast
2:36 PM 8.6 °F -5.5 °F -2.2 °F 62% 29.96 in 5.0 mi North 10.4 mph 16.1 mph N/A   Overcast
2:56 PM 8.6 °F -6.3 °F -4.0 °F 57% 29.95 in 4.0 mi NNE 11.5 mph 18.4 mph N/A   Overcast
3:16 PM 8.6 °F -5.5 °F -4.0 °F 57% 29.95 in 4.0 mi North 10.4 mph 18.4 mph N/A   Overcast
3:36 PM 6.8 °F -9.3 °F -4.0 °F 61% 29.95 in 2.5 mi North 12.7 mph 18.4 mph N/A   Overcast
3:56 PM 6.8 °F -10.7 °F -4.0 °F 61% 29.95 in 3.0 mi NNE 15.0 mph 19.6 mph N/A   Overcast
4:16 PM 6.8 °F -7.8 °F -4.0 °F 61% 29.95 in 3.0 mi North 10.4 mph 20.7 mph N/A   Overcast
4:36 PM 6.8 °F -9.3 °F -5.8 °F 56% 29.95 in 5.0 mi North 12.7 mph 19.6 mph N/A   Overcast
4:56 PM 6.8 °F -8.6 °F -5.8 °F 56% 29.95 in 5.0 mi North 11.5 mph 19.6 mph N/A   Overcast
5:16 PM 6.8 °F -10.0 °F -5.8 °F 56% 29.94 in 5.0 mi North 13.8 mph 18.4 mph N/A   Overcast
5:36 PM 6.8 °F -8.6 °F -5.8 °F 56% 29.95 in 3.0 mi North 11.5 mph - N/A   Overcast
5:56 PM 6.8 °F -8.6 °F -5.8 °F 56% 29.95 in 4.0 mi North 11.5 mph 19.6 mph N/A   Overcast
6:16 PM 6.8 °F -9.3 °F -5.8 °F 56% 29.95 in 4.0 mi North 12.7 mph 21.9 mph N/A   Overcast
6:36 PM 6.8 °F -10.0 °F -5.8 °F 56% 29.95 in 4.0 mi North 13.8 mph 19.6 mph N/A   Overcast
6:56 PM 6.8 °F -10.0 °F -5.8 °F 56% 29.94 in 4.0 mi North 13.8 mph 18.4 mph N/A   Overcast
7:16 PM 6.8 °F -10.0 °F -5.8 °F 56% 29.94 in 5.0 mi North 13.8 mph 19.6 mph N/A   Overcast
7:36 PM 6.8 °F -9.3 °F -7.6 °F 52% 29.94 in 6.0 mi North 12.7 mph 17.3 mph N/A   Overcast
7:56 PM 6.8 °F -10.7 °F -7.6 °F 52% 29.94 in 5.0 mi North 15.0 mph 18.4 mph N/A   Overcast
8:16 PM 5.0 °F -11.6 °F -5.8 °F 61% 29.94 in 5.0 mi North 12.7 mph 18.4 mph N/A   Overcast
8:36 PM 5.0 °F -10.8 °F -5.8 °F 61% 29.94 in 5.0 mi NNE 11.5 mph 18.4 mph N/A   Overcast
8:56 PM 5.0 °F -10.0 °F -5.8 °F 61% 29.94 in 3.0 mi NNE 10.4 mph 19.6 mph N/A   Overcast
9:16 PM 3.2 °F -13.1 °F -4.0 °F 72% 29.94 in 2.5 mi NNE 11.5 mph 18.4 mph N/A   Overcast
9:36 PM 3.2 °F -14.6 °F -4.0 °F 72% 29.94 in 2.5 mi NNE 13.8 mph 19.6 mph N/A   Overcast
9:56 PM 5.0 °F -11.6 °F -4.0 °F 66% 29.93 in 4.0 mi NNE 12.7 mph 20.7 mph N/A   Overcast
10:16 PM 5.0 °F -12.3 °F -5.8 °F 61% 29.93 in 5.0 mi NNE 13.8 mph - N/A   Overcast
10:36 PM 3.2 °F -15.9 °F -5.8 °F 66% 29.93 in 5.0 mi NNE 16.1 mph 21.9 mph N/A   Overcast
11:16 PM 3.2 °F -15.3 °F -5.8 °F 66% 29.94 in 6.0 mi NNE 15.0 mph - N/A   Overcast
11:36 PM 3.2 °F -13.9 °F -5.8 °F 66% 29.94 in 8.0 mi NNE 12.7 mph 16.1 mph N/A   Overcast
11:56 PM 3.2 °F -13.1 °F -5.8 °F 66% 29.94 in 8.0 mi NNE 11.5 mph - N/A   Overcast